Wind_Speed
23 23 23 24 24 25 25 26 26 27 28 29 29 30 31 32 33 34 35 35 36 36 37 37 37 37 37 37 36 35 34 34 33 32 31 30 29 28 27 26 24 24 23
25 25 25 25 26 27 27 28 28 29 30 31 32 33 33 34 35 36 37 37 38 38 39 39 39 39 39 39 39 38 37 36 36 35 34 33 32 31 30 28 27 26 25
27 27 27 28 29 29 29 30 31 31 32 33 34 35 36 36 37 38 39 40 40 41 41 41 41 41 41 41 41 40 40 39 38 38 37 35 34 33 32 31 30 29 28
29 29 29 30 31 31 32 33 33 34 35 36 37 38 38 39 40 41 41 42 42 42 43 43 43 43 43 42 42 42 42 41 41 40 39 38 37 36 35 34 33 32 30
31 31 31 32 33 34 34 35 36 37 37 38 40 40 41 42 43 43 43 43 44 44 44 44 44 44 44 44 44 44 43 43 43 42 42 41 40 39 38 36 35 34 33
33 33 33 35 36 36 37 37 38 39 39 41 42 42 43 44 44 44 45 45 45 45 45 45 45 45 45 45 45 45 45 45 45 45 44 43 42 41 40 39 38 37 36
36 36 36 37 38 38 39 40 40 41 42 43 44 44 44 45 45 45 45 45 45 46 46 47 47 47 47 47 47 47 47 46 46 47 46 46 45 43 42 41 40 39 39
38 38 39 39 40 41 41 42 42 43 44 45 46 46 45 44 45 45 45 45 45 46 46 47 47 47 48 49 49 49 49 49 49 48 48 48 46 46 45 44 42 41 40
40 40 41 41 42 42 43 43 45 45 46 46 47 47 47 46 45 44 44 45 46 46 47 47 47 48 49 50 51 51 51 50 51 51 51 50 49 48 47 47 46 45 42
42 42 43 43 43 44 44 45 46 47 47 47 47 47 48 47 46 45 45 45 46 46 47 47 48 49 50 50 51 52 52 52 53 52 52 51 51 51 49 48 48 47 46
44 44 44 44 44 45 45 46 47 47 48 48 47 47 46 46 47 47 46 45 46 47 48 49 49 50 50 51 52 52 52 53 53 53 54 53 52 51 52 50 48 48 47
45 45 45 45 45 46 47 47 47 47 47 47 47 46 46 46 46 46 45 45 46 47 48 49 49 50 50 51 50 51 52 52 52 52 53 52 51 51 51 51 50 48 47
46 45 45 45 46 47 47 47 47 47 46 46 45 45 45 45 45 45 46 46 46 46 46 47 48 49 50 50 50 49 49 50 50 50 51 51 50 49 49 48 49 49 47
45 45 46 46 47 47 46 46 46 45 44 44 44 44 44 44 44 45 45 45 45 44 44 45 47 47 47 47 47 46 46 45 45 46 47 47 47 47 46 46 47 47 46
45 46 47 47 46 46 46 45 44 44 43 43 43 43 43 43 43 44 44 44 44 43 43 43 44 44 44 44 43 41 41 40 40 42 44 44 45 45 44 45 46 44 45
47 47 47 47 46 45 44 43 43 42 42 42 42 41 42 42 42 42 42 42 42 42 42 41 41 41 40 39 38 37 36 36 35 35 36 37 37 39 40 42 42 44 45
47 47 46 45 44 42 42 42 41 41 41 41 40 40 40 41 41 41 40 41 41 41 40 39 38 37 37 35 34 33 32 31 30 29 31 32 33 33 34 37 38 39 41
45 44 43 42 41 40 40 40 40 39 39 39 39 39 39 40 40 39 39 39 39 38 38 36 35 34 34 33 32 30 30 29 28 27 26 27 28 30 31 33 36 37 39
43 42 40 39 39 39 38 38 38 38 37 37 37 38 38 38 38 38 38 38 37 36 36 34 33 33 32 32 30 29 28 27 26 26 27 28 28 28 30 32 34 36 38
39 38 37 37 37 37 36 36 36 36 35 36 36 36 37 37 37 37 37 36 36 35 35 34 34 33 32 32 31 30 28 27 26 26 27 28 29 30 31 33 35 37 39
36 36 36 35 35 35 34 34 34 34 34 35 35 35 35 35 36 36 36 35 35 35 35 34 34 33 32 31 31 30 30 29 29 29 29 30 31 33 34 36 37 38 40
35 34 34 34 33 33 32 32 32 32 33 33 34 34 35 35 35 35 35 35 35 35 35 34 34 33 33 32 32 32 31 31 32 32 33 33 34 35 37 39 40 41 42
32 32 31 31 30 30 30 31 31 32 32 33 33 34 34 35 35 35 35 35 35 35 35 35 35 34 34 34 34 34 34 34 35 35 36 37 38 39 40 42 43 44 44
30 29 28 28 28 28 29 30 31 31 31 32 33 33 34 35 35 35 35 35 35 35 35 35 35 35 35 35 35 36 36 37 38 38 39 40 41 42 43 44 45 46 46
27 27 27 27 27 28 28 29 29 30 31 32 33 33 34 34 35 35 36 35 36 36 36 36 36 36 36 36 37 37 38 39 40 41 42 43 43 44 45 46 47 47 47
26 26 26 26 27 27 28 28 29 30 31 32 33 34 34 35 35 35 36 36 36 37 37 37 37 37 37 38 38 39 40 41 42 43 43 44 45 45 45 46 47 47 46
Wind_Direction
292 295 297 299 300 301 302 302 301 301 302 302 301 301 301 301 301 301 301 300 299 298 297 296 295 294 293 291 289 287 286 284 282 281 279 277 277 276 274 273 273 272 272
289 293 295 297 298 300 300 300 300 300 300 300 300 300 300 300 300 300 300 300 299 298 297 296 295 294 292 291 289 287 285 284 282 280 278 276 275 274 273 272 270 270 269
287 290 292 294 296 298 298 298 298 298 298 299 298 298 299 299 299 299 299 299 298 298 298 296 295 294 292 290 289 287 286 284 282 280 278 276 275 273 272 271 269 268 267
284 287 290 292 294 295 296 296 296 296 297 297 297 298 298 298 298 299 299 298 298 298 297 296 295 294 293 291 289 287 286 284 282 280 279 277 275 273 272 270 269 267 266
282 285 288 290 291 292 293 293 294 294 295 295 295 296 297 298 298 299 299 298 298 297 297 296 296 295 294 292 290 288 286 283 281 279 278 276 274 273 271 269 267 266 265
280 283 285 287 288 290 290 291 292 292 293 294 294 296 297 297 298 299 298 298 298 297 297 296 296 295 294 293 290 288 286 283 280 278 276 274 273 271 270 268 267 266 265
279 281 283 284 286 287 287 288 289 290 292 292 293 294 295 297 298 298 297 298 297 297 297 296 295 295 294 292 290 288 285 283 280 277 274 272 271 270 268 267 266 266 265
277 279 281 282 284 285 286 287 288 289 291 292 293 294 295 296 296 297 298 298 297 297 297 296 295 295 294 293 290 288 286 282 280 277 274 272 269 267 266 266 265 266 266
275 277 279 282 283 284 286 287 288 290 291 292 294 295 295 296 295 297 297 297 297 297 297 296 296 295 294 292 290 288 285 282 279 275 273 271 269 267 265 265 265 265 266
274 276 279 281 282 284 285 287 288 290 292 293 294 295 296 297 297 297 297 297 297 297 297 296 296 295 295 293 290 287 283 280 278 275 273 271 269 266 264 265 264 264 264
274 276 278 280 282 284 285 287 289 291 292 293 295 296 296 297 298 299 299 299 298 298 298 297 297 296 295 294 291 287 284 280 275 272 272 270 269 266 263 263 263 262 261
274 276 278 280 282 284 286 288 290 291 292 294 295 296 297 298 299 300 300 300 299 299 299 298 298 297 296 295 293 289 284 281 276 272 270 268 267 266 264 262 261 261 260
273 275 278 281 283 285 287 288 290 291 292 294 294 296 297 298 298 299 300 300 300 300 300 299 298 298 297 297 295 291 286 283 278 272 270 269 268 266 265 262 260 262 262
273 276 279 281 284 285 287 288 289 291 292 293 294 295 296 297 298 299 300 301 301 302 301 301 300 299 300 300 297 292 288 286 279 274 272 270 268 265 262 261 259 262 262
275 278 280 282 284 285 287 288 290 291 292 293 294 295 296 297 299 300 301 302 303 303 303 303 302 302 302 302 301 297 293 290 284 277 271 270 269 266 264 263 262 262 262
276 279 281 282 284 286 287 289 290 291 292 293 294 295 296 297 299 300 302 303 304 305 305 305 305 305 306 306 304 301 297 293 290 283 277 275 272 270 268 266 265 265 264
277 279 281 282 284 285 287 288 289 290 291 292 293 294 296 297 299 301 302 303 305 306 306 307 307 307 309 310 308 305 303 299 293 289 284 277 273 272 272 267 266 265 265
277 278 280 281 283 285 286 288 289 290 291 292 293 295 296 298 299 300 302 303 305 307 308 309 309 309 309 310 308 306 306 303 296 291 287 283 279 276 275 272 269 267 267
276 277 279 281 283 284 286 287 289 290 291 292 293 295 296 298 299 301 302 303 304 306 308 309 310 310 311 311 310 308 306 304 301 295 291 287 285 282 279 276 273 271 271
275 276 278 280 282 283 285 287 288 289 291 292 294 295 297 299 300 301 303 303 304 306 307 308 308 308 309 309 309 308 306 304 302 299 295 290 286 285 282 279 277 275 273
274 276 277 279 281 282 284 286 287 289 291 292 294 296 298 300 301 302 302 303 304 305 306 307 308 308 308 307 307 307 306 304 302 299 297 293 289 286 284 282 280 278 276
273 275 276 277 279 281 284 285 288 290 292 293 295 297 299 300 301 301 302 303 304 305 306 306 307 308 308 308 307 306 304 303 301 299 297 295 293 290 288 286 284 282 280
271 273 275 276 278 281 283 286 288 290 292 294 296 298 299 300 301 302 303 304 305 305 306 306 307 307 307 307 306 305 303 301 300 299 298 296 294 292 290 288 286 285 283
269 271 273 275 278 281 284 287 289 291 294 295 296 298 300 301 302 302 303 304 305 305 306 306 306 306 306 305 305 304 302 301 300 299 298 297 295 294 292 290 288 286 285
267 270 273 276 279 282 285 287 289 292 295 296 298 299 301 302 303 303 303 304 304 305 305 305 306 306 305 305 305 304 303 302 301 300 299 298 296 295 294 292 289 287 286
267 270 273 277 280 282 285 288 291 293 296 298 299 300 301 302 303 303 304 304 304 305 305 306 306 306 305 305 305 304 304 303 302 301 300 299 298 296 295 293 291 289 288
Height
5864 5864 5864 5863 5862 5861 5860 5859 5857 5855 5854 5852 5850 5848 5846 5844 5842 5839 5837 5835 5833 5831 5828 5826 5824 5822 5820 5819 5817 5816 5815 5813 5812 5811 5810 5809 5809 5808 5807 5807 5807 5806 5806
5860 5859 5859 5858 5857 5856 5855 5854 5852 5850 5848 5846 5844 5842 5840 5838 5836 5834 5831 5829 5826 5824 5821 5819 5817 5815 5813 5812 5810 5809 5807 5806 5805 5804 5804 5803 5802 5802 5801 5801 5801 5801 5801
5855 5854 5854 5853 5851 5850 5849 5848 5846 5844 5842 5840 5838 5836 5834 5832 5829 5827 5824 5822 5819 5816 5814 5811 5809 5807 5806 5804 5802 5801 5800 5799 5798 5797 5796 5796 5795 5795 5795 5794 5794 5794 5795
5850 5849 5848 5847 5846 5844 5843 5841 5839 5838 5836 5834 5831 5829 5827 5824 5822 5819 5817 5814 5811 5808 5805 5803 5801 5799 5797 5795 5794 5792 5791 5790 5789 5788 5788 5787 5787 5787 5787 5787 5787 5787 5788
5844 5843 5842 5841 5839 5838 5836 5835 5833 5831 5829 5826 5824 5822 5819 5817 5814 5811 5808 5805 5802 5800 5797 5794 5792 5790 5788 5786 5784 5783 5782 5780 5780 5779 5778 5778 5778 5778 5778 5778 5779 5779 5780
5837 5837 5836 5834 5833 5831 5830 5827 5826 5824 5822 5819 5817 5815 5812 5809 5806 5803 5800 5797 5794 5791 5788 5785 5782 5780 5778 5776 5774 5772 5771 5770 5769 5768 5768 5767 5767 5768 5768 5769 5769 5770 5771
5830 5830 5829 5827 5826 5824 5822 5820 5818 5816 5814 5811 5809 5807 5804 5801 5798 5794 5791 5788 5785 5781 5778 5775 5772 5770 5767 5765 5763 5761 5759 5758 5757 5756 5756 5756 5756 5757 5757 5758 5759 5760 5761
5823 5822 5821 5820 5818 5817 5815 5812 5810 5808 5806 5802 5799 5797 5796 5795 5790 5785 5782 5779 5775 5772 5768 5765 5762 5759 5756 5753 5751 5749 5747 5746 5745 5744 5744 5743 5744 5745 5745 5746 5748 5749 5750
5815 5814 5813 5812 5810 5808 5806 5804 5801 5799 5797 5794 5790 5787 5785 5784 5782 5779 5774 5769 5765 5762 5758 5754 5751 5747 5744 5741 5739 5736 5734 5733 5731 5730 5730 5730 5731 5731 5733 5734 5736 5737 5738
5806 5805 5804 5803 5801 5799 5797 5795 5792 5789 5787 5784 5781 5777 5774 5771 5769 5768 5765 5760 5756 5751 5747 5743 5739 5736 5732 5729 5726 5723 5720 5718 5717 5716 5716 5716 5717 5718 5719 5721 5723 5724 5726
5797 5796 5795 5793 5792 5790 5788 5785 5782 5779 5777 5774 5771 5768 5764 5761 5757 5755 5754 5751 5746 5741 5736 5732 5728 5724 5719 5715 5712 5709 5706 5703 5701 5700 5700 5701 5701 5703 5705 5707 5709 5711 5713
5787 5786 5785 5784 5782 5780 5778 5775 5773 5770 5767 5764 5760 5757 5754 5751 5748 5744 5742 5739 5735 5731 5725 5720 5715 5711 5706 5702 5698 5694 5691 5688 5686 5685 5685 5685 5686 5688 5690 5692 5695 5697 5699
5778 5777 5776 5774 5772 5770 5768 5765 5763 5760 5757 5754 5750 5747 5744 5741 5737 5734 5731 5728 5724 5720 5715 5709 5704 5698 5693 5688 5684 5679 5676 5673 5671 5671 5670 5671 5672 5673 5675 5678 5680 5683 5686
5768 5767 5766 5764 5762 5760 5758 5755 5753 5750 5747 5744 5741 5738 5734 5731 5727 5724 5720 5717 5713 5709 5704 5699 5693 5687 5681 5676 5670 5665 5662 5659 5657 5657 5657 5657 5658 5659 5662 5664 5667 5670 5673
5758 5757 5755 5754 5752 5750 5748 5745 5743 5740 5737 5734 5731 5728 5725 5721 5717 5713 5709 5705 5702 5698 5694 5688 5682 5676 5670 5664 5658 5654 5650 5647 5645 5644 5644 5644 5645 5647 5650 5652 5655 5657 5660
5747 5746 5745 5743 5741 5739 5737 5735 5732 5730 5727 5724 5721 5718 5715 5711 5708 5703 5699 5695 5691 5687 5683 5678 5672 5666 5660 5654 5649 5644 5641 5637 5635 5633 5633 5633 5634 5636 5638 5641 5643 5644 5647
5736 5736 5734 5733 5731 5729 5727 5725 5723 5720 5718 5715 5712 5709 5706 5702 5698 5694 5690 5685 5681 5677 5672 5667 5662 5657 5652 5646 5641 5637 5633 5629 5627 5625 5624 5624 5625 5626 5627 5629 5631 5632 5634
5726 5725 5724 5723 5721 5719 5718 5716 5713 5711 5709 5706 5703 5700 5696 5693 5689 5685 5681 5676 5672 5668 5663 5658 5653 5649 5644 5639 5634 5630 5626 5623 5620 5618 5617 5616 5617 5617 5618 5619 5620 5621 5622
5716 5715 5714 5713 5712 5710 5708 5706 5704 5702 5699 5697 5694 5691 5687 5684 5680 5676 5672 5668 5663 5659 5655 5650 5645 5641 5636 5632 5628 5624 5621 5617 5615 5612 5611 5610 5609 5609 5609 5609 5609 5609 5610
5706 5706 5705 5704 5702 5701 5699 5697 5695 5693 5691 5688 5685 5682 5678 5675 5671 5667 5663 5659 5655 5651 5647 5642 5638 5633 5629 5625 5621 5617 5614 5611 5609 5606 5604 5603 5601 5600 5600 5599 5599 5598 5598
5697 5696 5696 5695 5693 5692 5691 5689 5687 5685 5682 5680 5676 5673 5670 5666 5662 5659 5655 5651 5647 5643 5638 5634 5630 5625 5621 5617 5614 5610 5607 5604 5601 5599 5597 5595 5593 5592 5590 5589 5587 5586 5585
5688 5687 5687 5686 5685 5684 5682 5681 5679 5676 5674 5671 5668 5665 5661 5658 5654 5650 5646 5642 5638 5634 5630 5626 5622 5617 5613 5609 5606 5602 5599 5596 5593 5591 5588 5585 5583 5581 5579 5577 5575 5573 5571
5679 5679 5678 5677 5677 5675 5674 5672 5670 5668 5666 5663 5660 5657 5653 5649 5646 5642 5638 5634 5630 5626 5622 5618 5613 5609 5605 5601 5597 5594 5590 5587 5584 5581 5578 5575 5572 5570 5567 5564 5561 5559 5557
5671 5670 5670 5669 5669 5667 5666 5664 5662 5660 5658 5655 5652 5648 5645 5641 5637 5634 5630 5626 5622 5617 5613 5609 5605 5601 5596 5592 5588 5585 5581 5577 5574 5570 5567 5564 5560 5557 5553 5550 5547 5544 5541
5663 5663 5662 5662 5661 5660 5658 5656 5654 5652 5649 5647 5643 5640 5637 5633 5629 5625 5622 5617 5613 5609 5605 5600 5596 5592 5587 5583 5579 5575 5571 5567 5563 5559 5555 5551 5547 5543 5539 5535 5532 5528 5525
5655 5655 5655 5654 5653 5652 5650 5649 5647 5644 5642 5639 5635 5632 5628 5625 5621 5617 5613 5609 5604 5600 5596 5591 5587 5582 5578 5573 5569 5565 5560 5556 5551 5547 5542 5538 5533 5529 5525 5520 5516 5512 5509